Theta_e
318 317 317 315 315 316 315 315 315 315 315 315 315 315 315 315 315 315 316 316 316 315 315 316 317 317 317 309 307 323 342 340 342 332 330 329 329 326 320 325 328 328 327 327 328 328 327
316 316 315 314 314 315 314 314 314 314 314 314 314 315 315 315 315 315 316 315 314 314 315 316 316 316 311 301 314 315 327 330 336 333 330 330 329 328 323 323 324 327 328 326 321 322 324
316 316 314 314 313 314 313 314 314 314 314 314 314 315 315 315 316 316 315 314 313 314 318 321 317 316 310 308 313 316 328 333 338 335 328 330 331 328 323 321 321 324 318 317 318 320 319
316 315 314 314 313 313 313 313 313 313 314 314 314 315 315 315 315 314 313 312 313 319 321 318 319 316 308 316 318 318 326 332 340 337 331 332 331 329 322 318 314 314 314 310 319 320 319
314 314 314 313 313 313 313 313 313 314 314 314 314 314 314 314 314 312 311 312 316 322 319 319 317 314 308 317 309 314 327 324 333 332 331 330 329 321 321 313 310 311 308 311 315 320 320
313 313 313 313 313 312 313 313 313 313 313 313 313 313 313 313 312 311 310 312 319 321 321 321 317 307 310 308 314 312 324 321 327 326 320 318 317 310 312 311 303 307 307 311 312 318 318
313 313 313 313 312 312 313 313 312 313 313 313 313 312 312 312 311 309 310 312 311 312 310 312 315 311 312 315 318 311 315 318 323 320 309 312 306 303 307 310 311 311 310 310 313 318 316
312 312 312 312 312 312 312 312 313 313 313 313 312 312 311 311 310 309 311 305 302 302 297 306 306 310 317 316 312 311 315 313 311 309 311 308 304 308 310 309 308 308 307 309 314 316 314
311 312 312 312 312 312 312 312 313 313 312 312 312 312 311 310 309 309 307 304 310 308 299 304 307 307 308 312 309 311 310 312 309 307 307 305 307 310 308 308 306 306 306 308 309 313 314
311 311 311 313 313 313 313 313 313 312 312 312 312 311 310 308 308 308 306 309 311 309 296 301 302 306 309 311 307 316 311 311 308 306 308 307 311 308 307 306 307 303 309 308 308 308 305
311 311 311 313 313 313 313 313 312 312 312 312 312 310 308 307 307 304 306 310 310 307 289 305 303 311 310 308 312 309 316 309 305 306 308 305 307 306 305 306 309 305 309 307 307 306 307
311 311 311 312 312 313 313 312 312 312 312 312 311 309 308 308 309 308 310 310 308 294 288 301 303 302 302 306 308 311 311 312 311 308 309 308 312 310 309 310 310 310 307 306 307 305 300
310 310 312 312 312 313 312 312 312 312 311 310 309 307 308 308 303 310 309 306 293 289 301 298 299 302 303 303 305 306 306 305 305 301 302 306 307 310 311 307 310 308 305 299 297 297 298
311 311 312 313 313 312 312 312 312 312 311 309 306 305 308 308 310 309 306 297 286 293 295 301 300 301 299 303 303 304 304 303 307 307 304 301 298 306 311 309 306 306 305 299 294 296 299
311 312 313 313 313 313 313 312 311 311 310 308 305 308 307 308 309 309 300 288 289 294 296 295 298 297 300 301 301 302 303 304 306 309 303 302 302 309 310 311 311 306 303 308 302 304 301
311 311 312 313 312 313 313 312 311 310 309 307 306 304 304 309 309 306 296 288 292 296 296 297 293 297 296 298 299 301 302 304 307 310 312 308 302 308 308 311 311 309 310 301 303 296 295
311 311 312 313 312 312 313 313 311 310 309 307 304 299 305 308 307 299 289 289 292 296 297 294 294 294 297 296 298 300 301 301 304 308 309 309 307 306 309 306 305 305 305 306 306 303 298
310 312 312 312 312 312 312 312 311 309 307 306 302 293 305 307 295 295 290 291 293 294 297 296 296 295 295 297 297 298 299 301 303 306 304 309 307 303 304 310 311 309 307 307 301 301 303
311 312 312 312 312 312 312 312 310 309 307 305 298 298 306 304 289 289 293 292 293 293 293 294 294 296 297 296 294 297 299 301 303 305 305 308 303 300 302 307 310 307 308 309 308 308 304
310 310 310 312 312 312 312 311 310 309 308 306 298 292 298 299 299 292 290 290 290 294 293 294 293 296 295 294 298 296 297 300 301 302 304 304 305 303 300 304 307 304 306 308 307 303 303
310 310 310 311 311 312 312 311 310 309 307 306 299 293 294 289 291 291 291 291 288 287 293 294 289 290 289 290 293 293 296 298 300 302 303 304 301 303 306 303 303 306 305 307 306 307 304
310 310 311 311 311 311 312 311 311 309 307 303 295 294 297 291 293 291 290 289 288 289 290 289 289 289 290 288 289 290 293 296 296 300 300 302 300 301 300 302 301 301 304 305 307 308 308
310 310 310 311 311 311 311 312 311 310 306 302 304 303 298 292 291 290 290 288 288 290 293 293 292 290 289 291 294 296 298 298 299 297 297 298 299 298 297 301 301 297 302 304 305 307 307
310 310 310 310 311 311 311 311 311 311 308 306 304 302 294 289 290 288 289 289 288 289 287 293 293 291 295 300 300 299 298 297 298 298 299 297 297 298 296 299 291 303 310 308 306 307 309
309 310 310 310 310 311 311 311 311 311 310 305 307 302 295 289 291 291 290 289 291 291 290 292 294 297 300 297 293 290 291 292 294 296 297 299 297 294 292 293 299 301 303 304 305 306 311
309 310 310 310 310 311 310 311 311 311 310 307 305 307 301 291 291 293 291 291 289 289 290 292 297 301 299 295 291 285 285 287 288 291 297 298 298 294 294 289 290 301 306 312 310 303 313
309 310 310 310 310 310 311 311 311 311 311 308 304 306 300 292 294 296 291 290 293 292 290 292 293 294 298 291 287 286 285 291 286 288 291 291 293 291 291 290 296 304 309 316 300 309 321
310 310 310 311 311 311 311 311 311 312 312 309 304 305 300 293 296 299 299 295 293 292 289 292 292 293 294 289 288 290 288 292 290 292 291 290 289 289 291 289 288 304 304 302 313 320 320
310 310 310 310 311 311 310 311 311 312 312 311 303 305 305 297 296 303 303 303 301 299 294 294 292 293 297 293 295 293 290 292 290 287 296 289 293 292 294 294 303 305 306 310 311 313 319
Wind_Speed
18 18 19 20 19 19 20 21 21 21 22 23 23 24 24 25 26 27 26 25 25 24 21 17 13 8 9 10 12 8 15 18 24 25 23 23 22 21 19 16 11 19 11 8 9 11 10
18 18 19 20 20 20 21 21 21 22 22 23 24 24 24 25 26 27 27 26 25 26 22 16 11 7 8 16 4 7 9 21 25 24 24 24 21 20 11 11 17 11 16 12 9 9 10
17 17 20 19 20 20 21 21 22 23 24 24 24 24 25 25 28 28 28 28 28 24 18 11 13 11 10 19 2 7 14 20 24 24 25 24 16 21 9 13 13 16 13 14 14 11 8
17 18 18 19 19 20 21 22 23 23 24 24 26 26 26 27 29 30 29 28 24 19 4 9 15 11 11 5 13 6 14 17 19 20 20 19 10 21 12 1 7 17 18 16 17 16 11
18 18 18 19 20 20 21 22 23 23 23 24 25 26 27 28 30 31 30 24 14 10 10 16 11 9 8 7 12 19 16 16 20 17 15 13 15 17 19 14 14 14 14 20 16 14 6
18 18 19 19 20 20 20 21 22 23 23 24 25 26 28 29 29 30 28 15 4 9 7 4 2 8 8 7 8 21 18 14 20 19 15 15 13 17 18 17 20 19 20 17 16 15 15
18 18 19 20 20 21 21 22 23 23 23 24 26 28 28 29 29 30 17 7 7 10 9 11 1 8 0 2 8 16 23 18 20 22 19 22 20 26 26 24 19 18 19 20 15 13 11
18 19 19 20 20 21 22 23 23 24 24 24 25 27 29 31 30 26 13 6 9 6 18 18 25 25 16 0 9 17 26 19 24 27 23 19 27 23 21 21 20 21 18 22 15 9 9
18 18 19 19 19 19 20 21 21 23 23 23 24 27 29 30 29 11 8 8 8 12 10 12 15 16 15 20 12 22 32 25 27 28 31 25 14 23 23 22 23 23 23 21 15 12 15
18 19 20 19 19 20 21 22 24 25 25 24 24 25 25 32 11 11 2 12 12 6 9 8 9 7 14 15 15 19 30 29 18 29 28 28 22 22 24 26 23 25 25 20 20 18 15
18 18 19 19 20 21 21 21 22 24 26 27 26 26 24 14 10 8 15 15 12 6 9 9 8 9 11 20 7 22 26 31 25 24 28 21 27 22 29 25 26 21 18 20 21 19 18
17 18 20 20 21 21 20 20 20 21 23 26 26 25 24 2 6 7 16 15 6 9 12 7 7 9 10 18 8 13 23 26 22 24 27 27 16 25 22 20 22 15 16 13 15 17 21
17 19 20 20 19 18 19 21 21 22 23 25 26 26 16 6 10 16 15 7 9 11 5 5 4 1 9 12 20 15 29 32 24 27 30 26 27 18 16 22 21 22 18 10 13 19 19
18 18 18 18 19 20 21 22 22 22 23 24 27 28 2 4 12 13 9 10 15 2 9 18 11 16 12 11 13 21 22 27 33 26 18 22 23 30 24 28 17 27 23 12 16 14 16
17 18 18 19 19 20 21 22 23 23 24 26 27 7 4 11 13 8 9 10 9 14 15 15 20 11 12 8 7 14 22 25 32 29 24 23 25 30 21 21 26 25 28 26 6 5 10
18 19 19 19 20 21 21 21 22 22 22 24 10 6 7 17 11 8 9 8 9 11 17 14 15 8 9 2 9 9 16 4 25 32 7 15 19 19 24 26 25 20 24 23 15 17 18
18 19 19 19 19 19 20 19 20 20 22 24 7 7 11 18 9 7 6 10 13 15 12 10 15 14 12 10 10 7 3 8 7 11 5 15 14 24 23 26 25 23 19 23 18 18 14
17 17 18 18 18 19 19 18 18 18 19 10 7 6 11 13 4 4 8 11 13 12 14 11 10 12 13 12 10 4 4 9 8 7 17 17 11 11 25 24 25 29 23 28 15 23 18
17 17 17 18 18 18 18 17 16 16 14 10 7 4 4 12 7 7 9 9 9 12 11 11 10 11 14 15 6 3 1 4 10 6 0 7 14 15 16 22 23 30 28 25 25 16 21
16 17 18 18 18 18 17 17 15 14 11 8 7 6 4 5 2 12 12 11 12 8 6 14 9 16 16 15 10 4 3 5 7 9 9 6 15 23 19 18 19 26 29 26 27 20 16
16 17 17 18 18 18 17 16 14 13 10 8 3 5 5 8 9 13 13 9 11 9 11 10 4 11 12 9 12 12 6 11 1 9 6 7 14 8 15 3 6 18 28 29 30 25 24
15 17 18 18 17 17 16 15 14 10 10 5 6 4 1 10 10 13 5 9 10 14 14 11 11 7 9 6 11 12 11 6 6 9 9 7 4 5 14 10 6 10 11 13 21 26 26
15 17 18 18 18 17 17 15 12 9 5 4 1 3 3 5 8 8 7 12 15 14 9 7 15 15 12 11 8 15 15 14 14 11 9 8 4 8 15 10 10 16 20 19 17 17 16
17 18 19 19 19 19 18 16 14 6 4 5 4 3 4 7 7 10 14 14 13 12 12 17 15 14 10 14 16 18 18 17 15 13 11 9 8 7 6 6 16 9 10 20 23 18 19
19 20 20 21 21 21 20 19 16 14 6 4 3 3 3 7 10 14 8 10 11 11 12 15 11 7 8 14 12 10 10 9 15 16 15 13 10 8 11 12 9 5 3 8 11 17 17
20 20 21 21 22 23 22 21 18 16 11 5 5 5 4 3 5 6 14 12 11 9 8 8 8 8 8 7 6 7 5 4 6 7 15 14 12 10 7 15 14 4 16 4 3 9 6
20 21 22 22 24 25 23 22 21 18 13 6 4 8 4 4 7 10 7 8 6 7 8 9 6 6 3 5 7 6 8 2 6 11 13 14 11 14 13 12 9 8 9 2 12 6 6
20 22 23 22 25 25 24 22 21 19 18 8 3 9 5 4 10 18 15 12 10 9 9 4 7 2 4 5 4 3 7 3 7 10 6 10 12 12 14 16 22 6 9 12 12 10 12
21 23 25 23 25 25 25 22 21 20 18 10 3 8 9 5 7 16 19 19 20 20 10 4 9 5 2 4 2 4 5 4 7 9 9 14 13 11 10 10 12 6 11 12 15 16 14
Wind_Direction
22 20 20 14 11 7 5 1 358 355 352 349 346 342 338 334 330 326 322 319 315 308 301 294 284 283 267 225 246 92 115 154 175 192 185 186 191 200 210 203 202 225 250 240 243 259 262
19 20 20 14 10 8 4 0 357 354 351 348 345 340 336 332 326 325 322 319 313 305 298 279 249 223 234 247 281 216 176 161 176 188 190 192 199 208 235 219 213 198 236 253 259 255 249
18 19 16 14 10 6 2 358 354 352 349 346 343 339 336 331 326 326 325 321 313 303 293 258 203 216 231 242 151 209 188 182 182 191 189 196 200 201 214 214 222 245 247 246 242 238 236
19 20 15 12 8 3 358 354 351 349 345 343 341 338 335 330 327 326 326 321 312 304 322 168 176 201 251 195 244 213 198 197 190 204 207 196 208 206 228 255 224 225 234 246 223 216 213
19 16 13 9 5 0 356 352 350 348 345 342 340 337 332 331 328 327 327 323 309 52 99 137 162 228 248 110 213 206 192 191 189 194 211 187 206 223 222 232 234 211 232 220 221 191 205
18 14 10 7 4 359 355 351 349 348 346 343 340 337 331 331 330 328 324 305 192 149 151 236 73 216 229 223 178 185 188 196 181 172 177 197 205 211 220 209 217 212 219 244 222 208 215
15 11 8 5 2 358 354 351 348 347 346 343 341 336 332 330 331 327 319 224 232 189 221 257 256 275 295 160 147 192 179 175 174 181 186 191 201 208 206 218 226 235 225 227 224 224 229
10 8 4 1 359 356 352 348 344 343 343 343 341 335 332 330 330 322 292 45 54 326 296 258 248 253 246 97 214 180 178 175 186 190 194 184 216 212 217 212 223 231 232 231 233 201 245
8 4 359 357 355 352 349 345 342 340 341 342 341 334 332 331 323 309 28 60 345 324 263 277 226 237 219 215 229 178 190 190 188 193 198 204 209 211 208 213 214 223 228 235 238 207 233
5 2 358 354 351 349 347 345 342 338 337 337 337 332 334 331 297 339 40 341 333 314 273 206 203 224 188 200 220 209 199 195 190 201 201 221 210 201 209 218 209 223 218 238 242 236 249
4 358 356 353 350 349 345 340 337 334 333 333 334 332 332 333 320 332 329 319 315 231 271 99 134 129 157 201 128 187 187 203 209 204 203 202 215 203 210 210 213 232 228 219 238 246 248
359 355 355 354 351 345 340 336 334 332 331 329 328 327 327 176 271 323 327 316 242 227 238 143 128 180 174 213 216 159 183 211 225 217 209 224 205 212 219 213 220 218 230 225 230 236 239
358 355 354 350 345 343 342 341 338 335 333 329 327 322 316 303 333 327 317 274 229 244 101 80 13 172 234 193 214 187 193 196 205 206 213 208 220 218 205 210 202 200 194 189 208 216 234
358 354 352 348 348 350 347 343 341 337 335 329 326 312 143 296 320 325 301 247 246 20 13 350 319 291 239 194 227 202 189 204 212 209 193 206 213 202 198 208 190 196 203 217 212 212 226
355 356 354 354 354 350 349 348 346 343 337 330 313 337 301 349 329 311 282 245 272 17 348 322 305 262 193 193 274 216 219 215 203 212 232 198 223 183 205 201 202 191 216 216 256 187 270
357 356 356 354 353 351 348 347 346 343 333 329 321 318 11 345 331 279 264 296 360 347 331 317 296 359 318 18 259 211 193 14 212 213 245 255 216 182 194 199 205 202 204 212 230 239 233
356 356 355 352 351 346 348 348 346 342 335 321 309 308 20 339 281 289 348 350 326 330 338 316 330 313 310 307 306 263 153 44 333 191 228 246 239 189 184 201 191 202 203 214 227 233 217
356 355 348 346 349 345 345 348 346 344 339 325 333 330 10 322 324 343 6 331 320 319 340 307 294 291 297 315 289 260 147 28 349 265 217 220 236 206 201 197 215 202 204 202 218 211 240
353 349 346 342 344 344 344 348 345 344 351 324 340 310 7 327 13 354 350 317 324 339 11 341 307 351 301 292 277 322 342 46 357 2 88 181 222 212 185 202 201 215 203 210 220 235 212
349 345 342 341 339 341 344 348 345 339 342 310 313 323 7 299 346 348 342 338 333 10 322 345 345 316 316 255 245 303 353 26 354 13 319 254 246 224 217 206 193 217 205 213 212 223 226
343 336 335 337 336 335 339 343 346 339 335 290 2 33 7 328 333 332 319 315 332 345 344 314 109 21 354 296 287 256 342 316 233 9 333 308 220 243 250 333 277 219 213 212 215 223 228
334 329 329 330 328 329 329 331 338 350 320 287 323 333 304 299 306 305 320 321 347 338 330 319 338 336 325 304 309 323 325 322 333 341 325 333 198 231 235 211 228 229 230 240 232 226 232
328 321 322 322 319 320 317 319 323 351 314 308 275 287 279 282 290 314 324 332 317 316 305 301 326 319 311 311 297 287 292 284 279 293 313 291 290 226 221 203 242 234 220 215 225 227 235
320 315 316 313 312 312 309 306 308 312 315 286 295 295 265 282 301 298 304 298 311 320 307 305 298 297 317 322 293 266 251 252 257 252 244 276 242 261 252 151 233 254 204 214 226 228 226
315 312 311 309 310 307 304 306 298 292 254 249 256 244 242 274 309 295 302 305 303 286 276 295 313 326 319 287 278 259 219 216 230 233 225 218 257 241 238 217 279 179 140 208 213 226 229
311 308 306 307 308 302 307 305 300 291 262 252 212 211 251 281 246 318 301 287 290 294 285 255 314 311 281 288 266 263 255 323 174 187 207 199 220 247 212 240 224 307 192 6 85 243 231
308 305 302 305 304 302 308 306 304 299 285 229 217 190 231 250 262 252 264 286 300 283 278 296 307 303 234 256 257 245 250 277 263 231 175 198 201 220 228 248 242 260 89 73 195 76 28
304 301 300 303 299 304 307 309 306 300 289 262 195 184 187 237 273 275 270 259 258 250 258 301 294 184 239 242 276 235 275 291 282 263 274 200 198 214 232 240 235 278 318 237 14 333 333
301 300 298 301 299 307 310 310 304 298 293 288 219 183 196 225 268 306 282 274 250 246 253 230 272 294 267 265 239 285 264 258 300 263 195 247 266 274 237 227 260 278 293 318 316 309 314